EN

Hourly Weather Acapetagua

Today, 14 May, Friday

Time Temperature Precipitation Wind Pressure Humidity
00:00 +13°C° 0 mm 2 mps 550 mmHg 76%
01:00 +13°C° 0 mm 2 mps 549 mmHg 76%
02:00 +13°C° 0 mm 2 mps 549 mmHg 76%
03:00 +12°C° 0 mm 2 mps 549 mmHg 76%
04:00 +12°C° 0 mm 2 mps 549 mmHg 76%
05:00 +12°C° 0 mm 1 mps 549 mmHg 76%
06:00 +13°C° 0 mm 2 mps 550 mmHg 71%
07:00 +14°C° 0 mm 2 mps 550 mmHg 66%
08:00 +15°C° 0 mm 2 mps 551 mmHg 61%
09:00 +17°C° 0 mm 2 mps 551 mmHg 55%
10:00 +18°C° 0 mm 2 mps 552 mmHg 48%
11:00 +20°C° 0 mm 2 mps 552 mmHg 42%
12:00 +20°C° 0.1 mm 2 mps 552 mmHg 40%
13:00 +21°C° 0.1 mm 2 mps 551 mmHg 38%
14:00 +21°C° 0.1 mm 2 mps 551 mmHg 37%
15:00 +20°C° 0.3 mm 2 mps 551 mmHg 40%
16:00 +19°C° 0.3 mm 2 mps 550 mmHg 44%
17:00 +19°C° 0.3 mm 2 mps 550 mmHg 48%
18:00 +17°C° 2.1 mm 2 mps 550 mmHg 56%
19:00 +16°C° 2.1 mm 2 mps 550 mmHg 64%
20:00 +15°C° 2.1 mm 1 mps 550 mmHg 72%
21:00 +14°C° 1.3 mm 1 mps 550 mmHg 72%
22:00 +14°C° 1.3 mm 1 mps 550 mmHg 72%
23:00 +14°C° 1.3 mm 1 mps 550 mmHg 72%

Tomorrow, 15 May, Saturday

Time Temperature Precipitation Wind Pressure Humidity
00:00 +14°C° 0.1 mm 1 mps 549 mmHg 73%
01:00 +14°C° 0.1 mm 1 mps 549 mmHg 74%
02:00 +13°C° 0.1 mm 1 mps 549 mmHg 75%
03:00 +13°C° 0 mm 1 mps 549 mmHg 75%
04:00 +13°C° 0 mm 1 mps 549 mmHg 75%
05:00 +13°C° 0 mm 1 mps 549 mmHg 75%
06:00 +14°C° 0.1 mm 1 mps 549 mmHg 70%
07:00 +15°C° 0.1 mm 1 mps 550 mmHg 66%
08:00 +16°C° 0.1 mm 1 mps 551 mmHg 62%
09:00 +19°C° 0.4 mm 1 mps 551 mmHg 57%
10:00 +20°C° 0.4 mm 1 mps 551 mmHg 53%
11:00 +21°C° 0.4 mm 1 mps 552 mmHg 48%
12:00 +21°C° 1.4 mm 1 mps 551 mmHg 49%
13:00 +20°C° 1.4 mm 1 mps 550 mmHg 49%
14:00 +20°C° 1.4 mm 1 mps 550 mmHg 50%
15:00 +19°C° 1.8 mm 1 mps 549 mmHg 56%
16:00 +18°C° 1.8 mm 1 mps 549 mmHg 63%
17:00 +15°C° 1.8 mm 2 mps 548 mmHg 69%
18:00 +15°C° 1.7 mm 1 mps 548 mmHg 72%
19:00 +14°C° 1.7 mm 1 mps 549 mmHg 74%
20:00 +14°C° 1.7 mm 1 mps 549 mmHg 76%
21:00 +14°C° 0.4 mm 1 mps 549 mmHg 75%
22:00 +13°C° 0.4 mm 0 mps 549 mmHg 74%
23:00 +13°C° 0.4 mm 0 mps 549 mmHg 73%

Day after tomorrow, 16 May, Sunday

Time Temperature Precipitation Wind Pressure Humidity
00:00 +13°C° 0.2 mm 0 mps 549 mmHg 73%
01:00 +13°C° 0.2 mm 0 mps 549 mmHg 73%
02:00 +14°C° 0.2 mm 1 mps 548 mmHg 73%
03:00 +14°C° 0.2 mm 1 mps 548 mmHg 73%
04:00 +14°C° 0.2 mm 1 mps 548 mmHg 74%
05:00 +13°C° 0.2 mm 1 mps 549 mmHg 74%
06:00 +14°C° 0 mm 1 mps 549 mmHg 70%
07:00 +15°C° 0 mm 1 mps 550 mmHg 65%
08:00 +15°C° 0 mm 0 mps 551 mmHg 61%
09:00 +19°C° 0 mm 1 mps 551 mmHg 54%
10:00 +20°C° 0 mm 1 mps 551 mmHg 48%
11:00 +22°C° 0 mm 1 mps 552 mmHg 42%
12:00 +22°C° 0.2 mm 1 mps 551 mmHg 40%
13:00 +23°C° 0.2 mm 2 mps 551 mmHg 37%
14:00 +23°C° 0.2 mm 2 mps 550 mmHg 35%
15:00 +21°C° 0.3 mm 2 mps 550 mmHg 39%
16:00 +20°C° 0.3 mm 2 mps 549 mmHg 44%
17:00 +20°C° 0.3 mm 2 mps 549 mmHg 48%
18:00 +18°C° 0.6 mm 2 mps 549 mmHg 56%
19:00 +16°C° 0.6 mm 2 mps 549 mmHg 64%
20:00 +15°C° 0.6 mm 2 mps 549 mmHg 71%
21:00 +15°C° 0.8 mm 2 mps 549 mmHg 71%
22:00 +15°C° 0.8 mm 1 mps 549 mmHg 71%
23:00 +15°C° 0.8 mm 1 mps 549 mmHg 71%

17 May, Monday

Time Temperature Precipitation Wind Pressure Humidity
00:00 +15°C° 0.6 mm 1 mps 549 mmHg 70%
01:00 +14°C° 0.6 mm 1 mps 548 mmHg 70%
02:00 +14°C° 0.6 mm 2 mps 548 mmHg 70%
03:00 +14°C° 0.1 mm 1 mps 548 mmHg 70%
04:00 +14°C° 0.1 mm 1 mps 548 mmHg 70%
05:00 +12°C° 0.1 mm 0 mps 548 mmHg 71%
06:00 +14°C° 0 mm 0 mps 549 mmHg 64%
07:00 +16°C° 0 mm 1 mps 550 mmHg 57%
08:00 +19°C° 0 mm 1 mps 551 mmHg 51%
09:00 +20°C° 0 mm 1 mps 551 mmHg 45%
10:00 +22°C° 0 mm 1 mps 551 mmHg 39%
11:00 +23°C° 0 mm 2 mps 552 mmHg 33%
12:00 +24°C° 0.1 mm 2 mps 551 mmHg 31%
13:00 +24°C° 0.1 mm 2 mps 551 mmHg 29%
14:00 +25°C° 0.1 mm 2 mps 551 mmHg 28%
15:00 +24°C° 0.4 mm 3 mps 550 mmHg 34%
16:00 +21°C° 0.4 mm 3 mps 550 mmHg 40%
17:00 +20°C° 0.4 mm 3 mps 549 mmHg 46%
18:00 +19°C° 0.3 mm 3 mps 549 mmHg 50%
19:00 +18°C° 0.3 mm 2 mps 549 mmHg 54%
20:00 +18°C° 0.3 mm 1 mps 549 mmHg 58%
21:00 +18°C° 0.1 mm 1 mps 549 mmHg 60%
22:00 +16°C° 0.1 mm 1 mps 549 mmHg 63%
23:00 +16°C° 0.1 mm 1 mps 549 mmHg 65%

18 May, Tuesday

Time Temperature Precipitation Wind Pressure Humidity
00:00 +15°C° 0.2 mm 1 mps 548 mmHg 67%
01:00 +15°C° 0.2 mm 1 mps 548 mmHg 69%
02:00 +14°C° 0.2 mm 1 mps 548 mmHg 71%
03:00 +14°C° 0.2 mm 1 mps 548 mmHg 71%
04:00 +14°C° 0.2 mm 1 mps 548 mmHg 71%
05:00 +14°C° 0.2 mm 1 mps 548 mmHg 71%
06:00 +15°C° 0.1 mm 1 mps 549 mmHg 65%
07:00 +18°C° 0.1 mm 1 mps 550 mmHg 59%
08:00 +20°C° 0.1 mm 1 mps 551 mmHg 53%
09:00 +21°C° 0.2 mm 1 mps 551 mmHg 48%
10:00 +22°C° 0.2 mm 1 mps 551 mmHg 44%
11:00 +24°C° 0.2 mm 1 mps 552 mmHg 40%
12:00 +23°C° 0.4 mm 1 mps 551 mmHg 40%
13:00 +23°C° 0.4 mm 2 mps 550 mmHg 41%
14:00 +23°C° 0.4 mm 2 mps 550 mmHg 42%
15:00 +21°C° 0.6 mm 2 mps 549 mmHg 44%
16:00 +20°C° 0.6 mm 2 mps 549 mmHg 47%
17:00 +20°C° 0.6 mm 2 mps 548 mmHg 49%
18:00 +19°C° 0.5 mm 2 mps 548 mmHg 54%
19:00 +18°C° 0.5 mm 2 mps 548 mmHg 58%
20:00 +17°C° 0.5 mm 2 mps 548 mmHg 62%
21:00 +17°C° 0.1 mm 2 mps 548 mmHg 64%
22:00 +16°C° 0.1 mm 1 mps 548 mmHg 65%
23:00 +16°C° 0.1 mm 1 mps 548 mmHg 66%

19 May, Wednesday

Time Temperature Precipitation Wind Pressure Humidity
00:00 +16°C° 0.2 mm 1 mps 548 mmHg 67%
01:00 +15°C° 0.2 mm 1 mps 548 mmHg 68%
02:00 +15°C° 0.2 mm 1 mps 547 mmHg 68%
03:00 +15°C° 0.1 mm 1 mps 547 mmHg 69%
04:00 +14°C° 0.1 mm 1 mps 547 mmHg 70%
05:00 +14°C° 0.1 mm 1 mps 547 mmHg 71%
06:00 +16°C° 0 mm 1 mps 548 mmHg 64%
07:00 +18°C° 0 mm 1 mps 549 mmHg 58%
08:00 +20°C° 0 mm 1 mps 550 mmHg 52%
09:00 +21°C° 0.1 mm 1 mps 550 mmHg 46%
10:00 +23°C° 0.1 mm 1 mps 551 mmHg 41%
11:00 +24°C° 0.1 mm 1 mps 551 mmHg 35%
12:00 +24°C° 0.2 mm 1 mps 551 mmHg 36%
13:00 +23°C° 0.2 mm 2 mps 550 mmHg 37%
14:00 +23°C° 0.2 mm 2 mps 549 mmHg 38%
15:00 +21°C° 0.2 mm 2 mps 549 mmHg 42%
16:00 +21°C° 0.2 mm 2 mps 548 mmHg 45%
17:00 +20°C° 0.2 mm 3 mps 548 mmHg 48%
18:00 +19°C° 0.1 mm 2 mps 548 mmHg 52%
19:00 +18°C° 0.1 mm 2 mps 548 mmHg 56%
20:00 +18°C° 0.1 mm 2 mps 548 mmHg 59%
21:00 +17°C° 0.1 mm 2 mps 548 mmHg 61%
22:00 +17°C° 0.1 mm 2 mps 548 mmHg 62%
23:00 +16°C° 0.1 mm 1 mps 548 mmHg 64%
Show more